sat.trackr.live / text

‹ back to catalog

SJ-9B

NORAD 38861 · 2012-056B

PAYLOAD ACTIVE UNKNOWN

§ Identity

Operator
Country
PRC
Launch date
2012-10-14
Launch site
TAISC
Launch vehicle
Mass (kg)
RCS (m²)
1.00

External: N2YO · Heavens-Above · Gunter

§ Orbital elements

Epoch: 2026-05-25T05:33:07.625664Z

Period
96.56 min
Inclination
97.5972°
Eccentricity
0.0013740
Mean motion
14.91226110 rev/d
Perigee alt
584.5 km
Apogee alt
603.7 km
Semi-major
6,972.2 km
B*
1.8798e-4
RAAN
130.1805°
Arg perigee
294.4381°
Mean anomaly
65.5404°
Rev number
73,630

§ Raw data

SJ-9B1 38861U 12056B   26145.23133826  .00001818  00000+0  18798-3 0  99992 38861  97.5972 130.1805 0013740 294.4381  65.5404 14.91226110736301

JSON: /api/v1/satellites/38861 · /tle

For live sub-satellite position, see the globe view (requires WebGL).

§ Visibility from observer

Set your observer location to see the next 7 days of passes ≥ 10°. The values pass through the URL so the page stays shareable.

No JS? Fill the form by hand. The geolocation button needs JavaScript.

§ Radio — SatNOGS DB

ModeDescriptionDownlinkUplink
FM S-band telemetry 2.255 GHz

1 transmitter · refreshed weekly from db.satnogs.org